FW4090 Weather Reports


time (UTC)temp
F
wind
direction
speed
knots
gust
knots
rain 1hr
in
rain 24hr
in
rain mn
in
humidity
%
barometer
mb
20260506010156 47 109 0.9 3.5 0.00 0.01 0.00 78 1014.3
20260506004654 47 113 0.9 4.3 0.00 0.01 0.00 77 1014.2
20260506003858 47 99 1.7 6.1 0.00 0.01 0.00 76 1014.3
20260506001651 47 89 1.7 5.2 0.00 0.01 0.00 76 1014.4
20260506000903 47 90 1.7 5.2 0.00 0.01 0.00 76 1014.3
20260505234652 47 107 2.6 9.6 0.00 0.01 0.00 75 1014.2
20260505233843 47 127 2.6 9.6 0.00 0.01 0.00 74 1014.3
20260505231652 48 108 2.6 7.0 0.00 0.01 0.00 74 1014.2
20260505230906 48 64 2.6 7.0 0.00 0.01 0.00 74 1014.2
20260505224651 48 67 3.5 7.8 0.00 0.01 0.01 73 1014.1
20260505223151 48 71 2.6 7.0 0.00 0.01 0.01 73 1014.2
20260505221649 48 86 1.7 7.8 0.00 0.01 0.01 73 1014.3
20260505220148 48 60 2.6 7.8 0.00 0.01 0.01 73 1014.2
20260505215338 49 84 1.7 7.0 0.00 0.01 0.01 77 1014.1
20260505213148 50 58 1.7 6.1 0.00 0.01 0.01 77 1014.1
20260505211645 50 60 0.9 3.5 0.00 0.01 0.01 78 1014.0
20260505210146 50 76 1.7 4.3 0.00 0.01 0.01 78 1013.9
20260505204646 51 63 0.9 1.7 0.00 0.01 0.01 79 1013.8
20260505203144 51 44 0.0 2.6 0.00 0.01 0.01 78 1013.8
20260505201638 51 354 0.9 2.6 0.00 0.01 0.01 77 1013.8
20260505200137 51 336 0.9 3.5 0.00 0.01 0.01 76 1013.8
20260505194638 51 314 1.7 4.3 0.00 0.01 0.01 75 1013.7
20260505193826 51 41 1.7 4.3 0.00 0.01 0.01 73 1013.6
20260505191633 51 43 2.6 7.0 0.00 0.01 0.01 73 1013.5
20260505190132 52 12 2.6 7.8 0.00 0.01 0.01 71 1013.4
20260505184625 52 333 3.5 9.6 0.00 0.01 0.01 71 1013.5
20260505183124 53 343 3.5 7.8 0.00 0.01 0.01 70 1013.4
20260505181625 53 311 2.6 8.7 0.00 0.01 0.01 70 1013.4
20260505180829 54 56 3.5 8.7 0.00 0.01 0.01 68 1013.4
20260505175334 53 326 2.6 8.7 0.00 0.01 0.01 70 1013.5
20260505173123 53 327 4.3 9.6 0.00 0.01 0.01 69 1013.5
20260505172315 54 339 3.5 9.6 0.00 0.01 0.01 71 1013.5
20260505170814 53 352 4.3 9.6 0.00 0.01 0.01 71 1013.5
20260505164622 53 13 4.3 9.6 0.00 0.01 0.01 73 1013.6
20260505163120 53 285 4.3 10.4 0.00 0.01 0.01 75 1013.6
20260505163016 53 288 5.2 11.3 0.00 0.01 0.01 79 1013.5
20260505160122 53 296 5.2 9.6 0.00 0.01 0.01 77 1013.6
20260505151621 53 13 5.2 10.4 0.00 0.01 0.01 74 1013.5
20260505150122 53 326 5.2 10.4 0.00 0.01 0.01 75 1013.6
20260505140121 53 337 4.3 10.4 0.00 0.01 0.01 74 1013.7
20260505130114 53 300 6.1 11.3 0.00 0.01 0.01 72 1013.8
20260505124611 53 355 5.2 12.2 0.00 0.01 0.01 73 1013.9
20260505123114 52 291 6.1 12.2 0.00 0.01 0.01 77 1013.8
20260505121612 53 302 5.2 13.9 0.00 0.01 0.01 78 1013.9
20260505120803 52 273 6.1 11.3 0.00 0.01 0.01 78 1014.0
20260505114610 52 309 5.2 11.3 0.01 0.01 0.01 77 1014.1
20260505113801 53 342 4.3 10.4 0.01 0.01 0.01 76 1014.1
20260505111609 53 49 3.5 10.4 0.01 0.01 0.01 75 1014.1
20260505110809 53 269 3.5 11.3 0.01 0.01 0.01 75 1014.1
20260505101611 50 328 3.5 8.7 0.00 0.00 0.00 86 1014.3
20260505100110 50 72 4.3 11.3 0.00 0.00 0.00 86 1014.3
20260505095316 52 349 5.2 11.3 0.00 0.00 0.00 80 1014.1
20260505093803 52 347 5.2 11.3 0.00 0.00 0.00 81 1014.1
20260505091609 51 313 4.3 9.6 0.00 0.00 0.00 83 1014.1
20260505090111 51 305 4.3 9.6 0.00 0.00 0.00 83 1014.1
20260505084613 51 302 3.5 7.8 0.00 0.00 0.00 84 1014.2
20260505083813 51 4 3.5 7.8 0.00 0.00 0.00 84 1014.1
20260505083702 51 20 3.5 7.8 0.00 0.00 0.00 84 1014.2
20260505080108 51 314 2.6 7.8 0.00 0.00 0.00 84 1014.1
20260505074607 50 352 2.6 7.0 0.00 0.00 0.00 85 1014.1
20260505073759 50 302 2.6 6.1 0.00 0.00 0.00 86 1014.1
20260505071608 50 44 2.6 7.0 0.00 0.00 0.00 87 1014.1
20260505070108 50 321 2.6 7.0 0.00 0.00 0.00 87 1014.0
20260505064606 50 357 2.6 7.8 0.00 0.00 0.00 86 1014.2
20260505063105 50 347 2.6 6.1 0.00 0.00 0.00 86 1014.2
20260505061607 50 352 2.6 6.1 0.00 0.00 0.00 86 1014.2
20260505060105 49 356 1.7 6.1 0.00 0.00 0.00 86 1014.2
20260505054605 49 333 2.6 6.1 0.00 0.00 0.00 86 1014.0
20260505053800 49 356 2.6 5.2 0.00 0.00 0.00 86 1014.0
20260505051605 49 54 1.7 6.1 0.00 0.00 0.00 86 1013.9
20260505050754 48 352 1.7 6.1 0.00 0.00 0.00 86 1013.8
20260505041605 48 322 2.6 5.2 0.00 0.00 0.00 86 1013.8
20260505040105 48 22 0.9 4.3 0.00 0.00 0.00 85 1013.7
20260505034605 48 64 1.7 6.1 0.00 0.00 0.00 84 1013.7
20260505033811 48 345 2.6 7.0 0.00 0.00 0.00 83 1013.8
20260505031606 48 338 2.6 8.7 0.00 0.00 0.00 83 1013.8
20260505030106 48 326 2.6 6.1 0.00 0.00 0.00 86 1013.9
20260505024607 48 12 2.6 7.0 0.00 0.00 0.00 86 1013.9
20260505023106 49 312 2.6 7.8 0.00 0.00 0.00 86 1014.0
20260505021606 49 319 2.6 6.1 0.00 0.00 0.00 86 1013.9
20260505014602 49 16 2.6 6.1 0.00 0.00 0.00 89 1014.2
20260505013103 49 316 2.6 6.1 0.00 0.00 0.00 89 1014.2
20260505011601 49 23 2.6 6.1 0.00 0.00 0.00 90 1014.4